Lid_Strength_Index
11 10 8 6 5 0 0 -0 -0 -0 -0 -0 -0 -0 -0 -0 -1 -1 -1 -1 -1 -1 -1 -1 -1 -1 -0 0 0 -0 -1 -1
10 12 10 8 7 1 -0 -0 -0 -0 -0 -0 0 0 -0 -0 -0 -0 -0 -1 -1 -1 -1 -1 -1 -0 -0 0 0 -0 -1 -1
9 9 11 11 8 6 2 -0 -0 -0 -0 -0 0 -1 -1 -1 -1 -0 -0 -0 -1 -1 -1 -0 -0 -0 -0 -0 -0 -1 -1 -1
9 8 8 9 9 8 6 -1 -1 -1 -1 -1 -1 -1 -1 -1 -1 0 -0 -0 -0 -0 -0 -0 -0 -1 -1 -0 -1 -1 -1 -1
9 8 8 7 8 9 9 7 -0 -1 -1 -1 -1 -1 -1 -1 -1 -1 -1 -1 -1 -1 -1 -1 -1 -1 -1 -1 -1 -1 -1 -1
10 10 9 8 7 8 9 8 5 1 -1 -1 -1 -0 -0 -1 -1 -1 -1 -1 -1 -1 -1 -1 -1 -1 -1 -1 -1 -1 -1 -1
9 10 10 9 9 8 7 9 8 6 4 -1 -1 -0 -0 -0 -1 -0 -1 -1 -1 -1 -1 -1 -1 -1 -1 -1 -1 -1 -1 -1
9 9 9 9 9 9 8 6 7 7 5 3 -1 -1 -0 -0 -0 -0 -0 -1 -1 -1 -0 -0 -0 -1 -1 -0 -1 -1 -1 -1
8 8 8 8 9 9 9 8 6 7 7 5 1 -1 -1 -0 -0 0 -0 -1 -1 -1 -1 -1 -0 -1 -0 0 -1 -1 -1 -1
7 8 7 7 7 7 7 8 8 7 7 7 6 3 -1 -0 -0 0 -0 -0 -0 -0 -0 0 0 0 0 -0 -0 -1 -1 -1
8 8 8 7 7 7 7 7 7 7 7 7 8 7 3 0 0 -0 -1 -0 -0 0 0 0 1 1 1 -0 -0 -0 -0 -1
7 8 8 8 8 7 7 7 7 7 6 6 8 6 6 4 -0 0 -0 0 0 0 1 0 0 1 1 1 0 -0 -0 -0
7 7 8 8 8 10 10 9 8 7 7 5 7 8 8 7 1 0 0 1 1 1 1 1 1 0 1 2 2 0 1 0
7 7 7 8 8 8 8 9 9 7 7 6 5 6 9 8 6 2 0 1 1 1 1 2 1 0 2 3 5 3 1 1
7 6 6 6 7 8 8 8 8 9 8 7 6 5 5 7 7 4 2 1 1 1 1 1 2 1 1 2 5 6 3 1
6 6 6 6 6 7 8 9 10 9 9 8 7 6 6 5 6 5 3 3 1 1 1 1 1 2 1 1 1 1 4 5
6 6 6 6 6 6 8 8 8 8 8 8 8 7 6 5 4 5 2 3 2 3 1 1 2 2 2 2 2 2 1 3
6 6 6 5 6 6 7 8 8 9 9 9 9 8 7 6 6 6 5 2 3 2 3 1 2 2 1 1 2 3 3 3
6 6 6 6 6 6 7 7 9 9 9 9 9 9 9 7 7 7 6 5 2 3 3 3 3 2 2 2 1 1 1 2
6 6 7 6 6 6 6 7 7 9 9 9 9 9 9 8 7 7 6 5 3 1 3 3 2 2 2 1 2 1 1 1